SP5EB-3 Weather Reports


time (UTC)temp
F
wind
direction
speed
knots
gust
knots
rain 1hr
in
rain 24hr
in
rain mn
in
humidity
%
barometer
mb
20260508073031 51 0 0.0 0.0 0.00 0.00 0.00 1 1014.9
20260508072524 51 0 0.0 0.0 0.00 0.00 0.00 22 1014.9
20260508072017 51 0 0.0 0.0 0.00 0.00 0.00 42 1014.9
20260508071511 51 0 0.0 0.0 0.00 0.00 0.00 20 1014.8
20260508071004 51 0 0.0 0.0 0.00 0.00 0.00 14 1014.8
20260508070457 51 0 0.0 0.0 0.00 0.00 0.00 15 1014.8
20260508064935 51 0 0.0 0.0 0.00 0.00 0.00 70 1014.5
20260508064428 51 0 0.0 0.0 0.00 0.00 0.00 53 1014.6
20260508063921 51 0 0.0 0.0 0.00 0.00 0.00 15 1014.5
20260508063414 51 0 0.0 0.0 0.00 0.00 0.00 65 1014.5
20260508062906 51 0 0.0 0.0 0.00 0.00 0.00 99 1014.5
20260508062359 51 0 0.0 0.0 0.00 0.00 0.00 99 1014.5
20260508061852 51 0 0.0 0.0 0.00 0.00 0.00 99 1014.4
20260508061345 51 0 0.0 0.0 0.00 0.00 0.00 99 1014.3
20260508060838 51 0 0.0 0.0 0.00 0.00 0.00 99 1014.4
20260508060331 51 0 0.0 0.0 0.00 0.00 0.00 99 1014.2
20260508055823 51 0 0.0 0.0 0.00 0.00 0.00 99 1014.2
20260508054810 51 0 0.0 0.0 0.00 0.00 0.00 99 1014.3
20260508054303 51 0 0.0 0.0 0.00 0.00 0.00 99 1014.2
20260508053756 51 0 0.0 0.0 0.00 0.00 0.00 99 1014.2
20260508053249 51 0 0.0 0.0 0.00 0.00 0.00 99 1014.2
20260508052741 51 0 0.0 0.0 0.00 0.00 0.00 99 1014.2
20260508052234 50 0 0.0 0.0 0.00 0.00 0.00 1 1014.0
20260508051727 50 0 0.0 0.0 0.00 0.00 0.00 1 1014.0
20260508051220 50 0 0.0 0.0 0.00 0.00 0.00 1 1014.1
20260508050714 50 0 0.0 0.0 0.00 0.00 0.00 1 1014.0
20260508050207 50 0 0.0 0.0 0.00 0.00 0.00 1 1013.9
20260508045659 50 0 0.0 0.0 0.00 0.00 0.00 1 1013.8
20260508045152 50 0 0.0 0.0 0.00 0.00 0.00 1 1013.8
20260508044645 50 0 0.0 0.0 0.00 0.00 0.00 1 1013.8
20260508044138 50 0 0.0 0.0 0.00 0.00 0.00 1 1013.8
20260508043631 50 0 0.0 0.0 0.00 0.00 0.00 1 1013.8
20260508043125 50 0 0.0 0.0 0.00 0.00 0.00 1 1013.7
20260508042617 50 0 0.0 0.0 0.00 0.00 0.00 99 1013.6
20260508042110 50 0 0.0 0.0 0.00 0.00 0.00 99 1013.7
20260508041603 50 0 0.0 0.0 0.00 0.00 0.00 99 1013.6
20260508041056 50 0 0.0 0.0 0.00 0.00 0.00 99 1013.6
20260508040549 50 0 0.0 0.0 0.00 0.00 0.00 99 1013.7
20260508040042 50 0 0.0 0.0 0.00 0.00 0.00 99 1013.6
20260508035534 50 0 0.0 0.0 0.00 0.00 0.00 99 1013.6
20260508035027 50 0 0.0 0.0 0.00 0.00 0.00 91 1013.7
20260508034520 50 0 0.0 0.0 0.00 0.00 0.00 27 1013.7
20260508034014 51 0 0.0 0.0 0.00 0.00 0.00 1 1013.5
20260508033000 51 0 0.0 0.0 0.00 0.00 0.00 1 1013.6
20260508032452 51 0 0.0 0.0 0.00 0.00 0.00 1 1013.6
20260508031945 51 0 0.0 0.0 0.00 0.00 0.00 1 1013.5
20260508031438 51 0 0.0 0.0 0.00 0.00 0.00 1 1013.6
20260508030931 51 0 0.0 0.0 0.00 0.00 0.00 1 1013.6
20260508030424 51 0 0.0 0.0 0.00 0.00 0.00 1 1013.6
20260508025917 51 0 0.0 0.0 0.00 0.00 0.00 1 1013.5
20260508025409 51 0 0.0 0.0 0.00 0.00 0.00 1 1013.4
20260508024902 51 0 0.0 0.0 0.00 0.00 0.00 1 1013.4
20260508024356 51 0 0.0 0.0 0.00 0.00 0.00 1 1013.4
20260508023849 51 0 0.0 0.0 0.00 0.00 0.00 1 1013.3
20260508023342 51 0 0.0 0.0 0.00 0.00 0.00 1 1013.3
20260508022835 51 0 0.0 0.0 0.00 0.00 0.00 1 1013.3
20260508022327 51 0 0.0 0.0 0.00 0.00 0.00 1 1013.2
20260508021820 51 0 0.0 0.0 0.00 0.00 0.00 1 1013.3
20260508021313 51 0 0.0 0.0 0.00 0.00 0.00 1 1013.4
20260508020806 51 0 0.0 0.0 0.00 0.00 0.00 1 1013.3
20260508020259 51 0 0.0 0.0 0.00 0.00 0.00 1 1013.3
20260508015752 51 0 0.0 0.0 0.00 0.00 0.00 99 1013.4
20260508015244 51 0 0.0 0.0 0.00 0.00 0.00 99 1013.3
20260508014737 51 0 0.0 0.0 0.00 0.00 0.00 99 1013.2
20260508014230 51 0 0.0 0.0 0.00 0.00 0.00 99 1013.3
20260508013723 51 0 0.0 0.0 0.00 0.00 0.00 99 1013.2
20260508013216 51 0 0.0 0.0 0.00 0.00 0.00 99 1013.3
20260508012710 51 0 0.0 0.0 0.00 0.00 0.00 99 1013.2
20260508012201 51 0 0.0 0.0 0.00 0.00 0.00 99 1013.3
20260508011655 51 0 0.0 0.0 0.00 0.00 0.00 99 1013.2
20260508011148 51 0 0.0 0.0 0.00 0.00 0.00 99 1013.3
20260508010641 51 0 0.0 0.0 0.00 0.00 0.00 99 1013.3
20260508010134 51 0 0.0 0.0 0.00 0.00 0.00 99 1013.1
20260508005627 52 0 0.0 0.0 0.00 0.00 0.00 99 1013.3
20260508005119 52 0 0.0 0.0 0.00 0.00 0.00 99 1013.3
20260508004612 52 0 0.0 0.0 0.00 0.00 0.00 99 1013.1
20260508004105 52 0 0.0 0.0 0.00 0.00 0.00 99 1013.0
20260508003558 52 0 0.0 0.0 0.00 0.00 0.00 1 1013.1
20260508003051 52 0 0.0 0.0 0.00 0.00 0.00 1 1013.2
20260508002544 52 0 0.0 0.0 0.00 0.00 0.00 1 1013.1
20260508002036 52 0 0.0 0.0 0.00 0.00 0.00 1 1013.2
20260508001529 52 0 0.0 0.0 0.00 0.00 0.00 1 1013.1
20260508001022 52 0 0.0 0.0 0.00 0.00 0.00 1 1013.2
20260508000515 52 0 0.0 0.0 0.00 0.00 0.00 1 1013.2
20260507235501 52 0 0.0 0.0 0.00 0.00 0.00 1 1013.1
20260507234953 52 0 0.0 0.0 0.00 0.00 0.00 1 1013.0
20260507234446 52 0 0.0 0.0 0.00 0.00 0.00 1 1013.0
20260507233939 52 0 0.0 0.0 0.00 0.00 0.00 1 1013.0
20260507233432 52 0 0.0 0.0 0.00 0.00 0.00 1 1013.0
20260507232925 52 0 0.0 0.0 0.00 0.00 0.00 1 1013.0
20260507232418 52 0 0.0 0.0 0.00 0.00 0.00 1 1013.0
20260507231909 52 0 0.0 0.0 0.00 0.00 0.00 1 1013.1
20260507231402 52 0 0.0 0.0 0.00 0.00 0.00 1 1013.1
20260507230855 52 0 0.0 0.0 0.00 0.00 0.00 1 1013.1
20260507230348 52 0 0.0 0.0 0.00 0.00 0.00 1 1013.1
20260507225841 52 0 0.0 0.0 0.00 0.00 0.00 1 1013.1
20260507225334 52 0 0.0 0.0 0.00 0.00 0.00 1 1013.1
20260507224319 52 0 0.0 0.0 0.00 0.00 0.00 1 1013.0
20260507223812 53 0 0.0 0.0 0.00 0.00 0.00 1 1013.0
20260507223305 53 0 0.0 0.0 0.00 0.00 0.00 1 1013.0
20260507222758 53 0 0.0 0.0 0.00 0.00 0.00 1 1013.0
20260507222251 53 0 0.0 0.0 0.00 0.00 0.00 1 1013.0
20260507221743 53 0 0.0 0.0 0.00 0.00 0.00 99 1012.9
20260507221236 53 0 0.0 0.0 0.00 0.00 0.00 99 1012.9
20260507220222 53 0 0.0 0.0 0.00 0.00 0.00 99 1012.7
20260507215715 53 0 0.0 0.0 0.00 0.00 0.00 99 1012.7
20260507215207 53 0 0.0 0.0 0.00 0.00 0.00 99 1012.7
20260507214659 53 0 0.0 0.0 0.00 0.00 0.00 99 1012.7
20260507213645 54 0 0.0 0.0 0.00 0.00 0.00 99 1012.6
20260507213138 54 0 0.0 0.0 0.00 0.00 0.00 99 1012.6
20260507212631 54 0 0.0 0.0 0.00 0.00 0.00 99 1012.6
20260507212124 54 0 0.0 0.0 0.00 0.00 0.00 99 1012.7
20260507211615 54 0 0.0 0.0 0.00 0.00 0.00 99 1012.6
20260507211108 54 0 0.0 0.0 0.00 0.00 0.00 99 1012.5
20260507210601 54 0 0.0 0.0 0.00 0.00 0.00 99 1012.5
20260507210054 54 0 0.0 0.0 0.00 0.00 0.00 99 1012.4
20260507205547 54 0 0.0 0.0 0.00 0.00 0.00 99 1012.4
20260507205040 54 0 0.0 0.0 0.00 0.00 0.00 99 1012.4
20260507204531 54 0 0.0 0.0 0.00 0.00 0.00 99 1012.4
20260507204024 54 0 0.0 0.0 0.00 0.00 0.00 99 1012.5
20260507203517 54 0 0.0 0.0 0.00 0.00 0.00 99 1012.4
20260507203010 54 0 0.0 0.0 0.00 0.00 0.00 99 1012.4
20260507202503 54 0 0.0 0.0 0.00 0.00 0.00 99 1012.4
20260507201447 54 0 0.0 0.0 0.00 0.00 0.00 99 1012.5
20260507200940 54 0 0.0 0.0 0.00 0.00 0.00 99 1012.5
20260507200433 54 0 0.0 0.0 0.00 0.00 0.00 99 1012.5
20260507195926 54 0 0.0 0.0 0.00 0.00 0.00 99 1012.5
20260507195418 54 0 0.0 0.0 0.00 0.00 0.00 99 1012.4
20260507194911 54 0 0.0 0.0 0.00 0.00 0.00 99 1012.4
20260507194403 54 0 0.0 0.0 0.00 0.00 0.00 99 1012.4
20260507193856 54 0 0.0 0.0 0.00 0.00 0.00 99 1012.4
20260507193348 54 0 0.0 0.0 0.00 0.00 0.00 99 1012.2
20260507192841 55 0 0.0 0.0 0.00 0.00 0.00 99 1012.1
20260507192334 54 0 0.0 0.0 0.00 0.00 0.00 99 1012.1
20260507191827 54 0 0.0 0.0 0.00 0.00 0.00 99 1012.1
20260507191319 55 0 0.0 0.0 0.00 0.00 0.00 99 1012.1
20260507190811 55 0 0.0 0.0 0.00 0.00 0.00 99 1012.0
20260507190304 55 0 0.0 0.0 0.00 0.00 0.00 99 1011.8
20260507185757 55 0 0.0 0.0 0.00 0.00 0.00 99 1011.8
20260507185250 55 0 0.0 0.0 0.00 0.00 0.00 99 1011.7
20260507184743 55 0 0.0 0.0 0.00 0.00 0.00 99 1011.6
20260507184234 55 0 0.0 0.0 0.00 0.00 0.00 99 1011.7
20260507183220 55 0 0.0 0.0 0.00 0.00 0.00 99 1011.7
20260507182713 55 0 0.0 0.0 0.00 0.00 0.00 99 1011.7
20260507182205 55 0 0.0 0.0 0.00 0.00 0.00 99 1011.7
20260507181658 55 0 0.0 0.0 0.00 0.00 0.00 92 1011.7
20260507181150 55 0 0.0 0.0 0.00 0.00 0.00 84 1011.6
20260507180642 55 0 0.0 0.0 0.00 0.00 0.00 56 1011.6
20260507180135 56 0 0.0 0.0 0.00 0.00 0.00 28 1011.4
20260507175628 56 0 0.0 0.0 0.00 0.00 0.00 15 1011.5
20260507175121 56 0 0.0 0.0 0.00 0.00 0.00 19 1011.5
20260507174105 56 0 0.0 0.0 0.00 0.00 0.00 7 1011.4
20260507173558 56 0 0.0 0.0 0.00 0.00 0.00 1 1011.3
20260507172543 57 0 0.0 0.0 0.00 0.00 0.00 1 1011.0
20260507172036 57 0 0.0 0.0 0.00 0.00 0.00 1 1010.9
20260507171528 57 0 0.0 0.0 0.00 0.00 0.00 1 1010.9
20260507171020 57 0 0.0 0.0 0.00 0.00 0.00 1 1010.7
20260507170512 58 0 0.0 0.0 0.00 0.00 0.00 1 1010.6
20260507170005 58 0 0.0 0.0 0.00 0.00 0.00 1 1010.5
20260507165457 58 0 0.0 0.0 0.00 0.00 0.00 1 1010.5
20260507164950 59 0 0.0 0.0 0.00 0.00 0.00 1 1010.6
20260507164442 59 0 0.0 0.0 0.00 0.00 0.00 1 1010.5
20260507163934 59 0 0.0 0.0 0.00 0.00 0.00 1 1010.5
20260507163426 59 0 0.0 0.0 0.00 0.00 0.00 1 1010.4
20260507162919 59 0 0.0 0.0 0.00 0.00 0.00 1 1010.4
20260507162411 59 0 0.0 0.0 0.00 0.00 0.00 1 1010.4
20260507161903 59 0 0.0 0.0 0.00 0.00 0.00 1 1010.4
20260507161356 59 0 0.0 0.0 0.00 0.00 0.00 1 1010.6
20260507160340 60 0 0.0 0.0 0.00 0.00 0.00 1 1010.5
20260507155832 60 0 0.0 0.0 0.00 0.00 0.00 1 1010.6
20260507154817 60 0 0.0 0.0 0.00 0.00 0.00 1 1010.6
20260507154309 60 0 0.0 0.0 0.00 0.00 0.00 1 1010.6
20260507153800 60 0 0.0 0.0 0.00 0.00 0.00 1 1010.6
20260507153253 59 0 0.0 0.0 0.00 0.00 0.00 1 1010.4
20260507152238 59 0 0.0 0.0 0.00 0.00 0.00 1 1010.5
20260507151730 60 0 0.0 0.0 0.00 0.00 0.00 1 1010.6
20260507151222 59 0 0.0 0.0 0.00 0.00 0.00 1 1010.5
20260507150714 59 0 0.0 0.0 0.00 0.00 0.00 1 1010.5
20260507150206 60 0 0.0 0.0 0.00 0.00 0.00 1 1010.5
20260507145659 59 0 0.0 0.0 0.00 0.00 0.00 1 1010.5
20260507145151 60 0 0.0 0.0 0.00 0.00 0.00 1 1010.5
20260507144643 60 0 0.0 0.0 0.00 0.00 0.00 1 1010.6
20260507144136 60 0 0.0 0.0 0.00 0.00 0.00 1 1010.5
20260507143627 60 0 0.0 0.0 0.00 0.00 0.00 1 1010.5
20260507143119 60 0 0.0 0.0 0.00 0.00 0.00 1 1010.5
20260507142612 60 0 0.0 0.0 0.00 0.00 0.00 1 1010.4
20260507142104 60 0 0.0 0.0 0.00 0.00 0.00 1 1010.3
20260507141556 60 0 0.0 0.0 0.00 0.00 0.00 1 1010.3
20260507141049 60 0 0.0 0.0 0.00 0.00 0.00 1 1010.3
20260507140540 60 0 0.0 0.0 0.00 0.00 0.00 1 1010.3
20260507135525 60 0 0.0 0.0 0.00 0.00 0.00 1 1010.2
20260507135017 60 0 0.0 0.0 0.00 0.00 0.00 47 1010.1
20260507134510 59 0 0.0 0.0 0.00 0.00 0.00 29 1010.0
20260507133453 59 0 0.0 0.0 0.00 0.00 0.00 29 1010.1
20260507132946 59 0 0.0 0.0 0.00 0.00 0.00 36 1010.1
20260507132438 59 0 0.0 0.0 0.00 0.00 0.00 35 1010.1
20260507131931 59 0 0.0 0.0 0.00 0.00 0.00 40 1010.1
20260507131423 59 0 0.0 0.0 0.00 0.00 0.00 99 1010.1
20260507130915 59 0 0.0 0.0 0.00 0.00 0.00 99 1010.1
20260507130407 59 0 0.0 0.0 0.00 0.00 0.00 99 1010.0
20260507125859 59 0 0.0 0.0 0.00 0.00 0.00 99 1010.0
20260507125352 59 0 0.0 0.0 0.00 0.00 0.00 99 1010.0
20260507124844 59 0 0.0 0.0 0.00 0.00 0.00 99 1010.0
20260507124337 59 0 0.0 0.0 0.00 0.00 0.00 99 1010.0
20260507123829 59 0 0.0 0.0 0.00 0.00 0.00 99 1010.0
20260507123321 58 0 0.0 0.0 0.00 0.00 0.00 99 1010.1
20260507122813 58 0 0.0 0.0 0.00 0.00 0.00 99 1010.0
20260507122307 58 0 0.0 0.0 0.00 0.00 0.00 99 1009.9
20260507121758 58 0 0.0 0.0 0.00 0.00 0.00 99 1009.9
20260507121251 58 0 0.0 0.0 0.00 0.00 0.00 99 1009.9
20260507120744 58 0 0.0 0.0 0.00 0.00 0.00 99 1010.0
20260507120235 58 0 0.0 0.0 0.00 0.00 0.00 99 1010.0
20260507115727 58 0 0.0 0.0 0.00 0.00 0.00 99 1010.0
20260507115220 59 0 0.0 0.0 0.00 0.00 0.00 99 1010.2
20260507114712 59 0 0.0 0.0 0.00 0.00 0.00 99 1010.1
20260507114205 59 0 0.0 0.0 0.00 0.00 0.00 99 1010.1
20260507113657 59 0 0.0 0.0 0.00 0.00 0.00 99 1010.0
20260507113149 59 0 0.0 0.0 0.00 0.00 0.00 99 1010.1
20260507112134 59 0 0.0 0.0 0.00 0.00 0.00 99 1009.8
20260507111626 58 0 0.0 0.0 0.00 0.00 0.00 99 1009.7
20260507111119 58 0 0.0 0.0 0.00 0.00 0.00 99 1009.6
20260507105555 57 0 0.0 0.0 0.00 0.00 0.00 99 1009.5
20260507105048 56 0 0.0 0.0 0.00 0.00 0.00 99 1009.4
20260507104541 55 0 0.0 0.0 0.00 0.00 0.00 1 1009.3
20260507104034 55 0 0.0 0.0 0.00 0.00 0.00 1 1009.3
20260507103526 55 0 0.0 0.0 0.00 0.00 0.00 57 1009.3
20260507103018 55 0 0.0 0.0 0.00 0.00 0.00 99 1009.3
20260507102511 54 0 0.0 0.0 0.00 0.00 0.00 99 1009.2
20260507102004 54 0 0.0 0.0 0.00 0.00 0.00 99 1009.2
20260507101457 54 0 0.0 0.0 0.00 0.00 0.00 99 1009.1
20260507100442 54 0 0.0 0.0 0.00 0.00 0.00 1 1009.1
20260507095427 55 0 0.0 0.0 0.00 0.00 0.00 1 1008.9
20260507094920 55 0 0.0 0.0 0.00 0.00 0.00 1 1008.9
20260507094412 55 0 0.0 0.0 0.00 0.00 0.00 1 1008.9
20260507093905 55 0 0.0 0.0 0.00 0.00 0.00 1 1008.8
20260507092850 55 0 0.0 0.0 0.00 0.00 0.00 1 1008.6
20260507092343 55 0 0.0 0.0 0.00 0.00 0.00 1 1008.6
20260507091835 55 0 0.0 0.0 0.00 0.00 0.00 99 1008.5
20260507091328 55 0 0.0 0.0 0.00 0.00 0.00 1 1008.4
20260507090821 55 0 0.0 0.0 0.00 0.00 0.00 1 1008.4
20260507090314 55 0 0.0 0.0 0.00 0.00 0.00 99 1008.3
20260507085805 55 0 0.0 0.0 0.00 0.00 0.00 1 1008.2
20260507085258 55 0 0.0 0.0 0.00 0.00 0.00 1 1008.3
20260507084751 55 0 0.0 0.0 0.00 0.00 0.00 56 1008.1
20260507084244 55 0 0.0 0.0 0.00 0.00 0.00 63 1008.1
20260507083736 56 0 0.0 0.0 0.00 0.00 0.00 23 1008.1
20260507083229 56 0 0.0 0.0 0.00 0.00 0.00 1 1008.0
20260507082721 56 0 0.0 0.0 0.00 0.00 0.00 1 1007.9
20260507081706 56 0 0.0 0.0 0.00 0.00 0.00 1 1007.8
20260507081159 56 0 0.0 0.0 0.00 0.00 0.00 99 1007.7
20260507080144 57 0 0.0 0.0 0.00 0.00 0.00 99 1007.5
20260507075636 57 0 0.0 0.0 0.00 0.00 0.00 99 1007.6
20260507074621 57 0 0.0 0.0 0.00 0.00 0.00 99 1007.6
20260507074114 58 0 0.0 0.0 0.00 0.00 0.00 1 1007.4
20260507073606 58 0 0.0 0.0 0.00 0.00 0.00 1 1007.4
20260507073353 59 0 0.0 0.0 0.00 0.00 0.00 1 1007.2